RH
73 90 77 75 98 84 56 51 55 61 60 66 75 60 57 62 55 52 43 32 30 27 18 14 15 14 15 13 12 14 20 33 47 52 48 47 46 44 44 45 44 41 40 35 32 32 31 39 55 66 72 76 75 71 70 74 73 68 73 87 91 86 94 100 100 99 94 87 77 71 67 62 55 52 49 43 50 59 80 85 71 78 77 70 75 75 72 63 57 57 61 66 69 66 64 77 86
62 93 92 86 106 87 55 56 58 55 50 61 81 68 55 56 54 56 48 36 32 30 23 17 17 16 15 13 12 13 17 27 41 53 51 45 46 50 52 51 48 45 48 49 43 40 35 32 31 33 34 36 42 51 61 62 60 67 76 85 92 97 101 99 98 94 83 75 68 66 63 59 55 50 46 55 72 71 87 93 70 74 77 71 74 73 75 74 67 65 68 78 84 76 73 88 94
51 86 98 88 100 91 70 66 56 57 61 66 86 75 55 51 52 58 54 41 34 34 29 21 19 18 15 13 12 13 16 23 32 48 57 50 45 52 56 51 50 43 41 47 48 48 45 41 37 33 31 30 28 32 48 58 64 79 90 92 96 101 101 97 93 82 68 63 62 60 59 58 53 48 57 83 99 83 91 102 72 68 73 62 65 64 64 69 73 77 78 86 94 84 82 94 94
43 78 104 83 83 94 91 80 53 57 71 74 92 86 61 46 50 62 57 46 38 35 35 27 22 21 18 14 11 13 15 20 26 37 53 55 48 57 64 54 51 49 43 41 43 48 50 50 47 42 39 36 35 32 36 48 63 81 93 94 96 99 97 89 79 66 57 58 58 58 62 62 52 50 72 100 107 94 99 106 79 72 71 52 51 48 44 51 69 89 94 98 97 87 89 94 91
37 73 107 73 62 84 93 89 58 57 66 67 85 93 83 51 43 62 57 49 44 36 38 34 26 24 21 17 12 12 13 17 23 29 42 49 46 56 68 63 56 56 53 50 51 52 54 55 55 53 49 44 41 38 36 38 47 59 70 76 79 79 74 67 59 55 52 56 59 61 66 61 51 52 72 99 105 98 99 103 91 84 68 46 46 44 39 40 64 96 102 101 93 88 93 90 90
31 63 100 68 51 71 82 79 60 62 60 55 64 79 97 71 41 51 55 51 48 41 40 39 32 29 25 21 15 12 13 13 18 24 33 43 49 57 66 67 65 65 64 64 66 68 69 68 68 65 61 56 49 44 42 41 42 43 46 48 51 51 50 48 45 48 50 58 65 64 66 58 51 50 62 90 101 92 85 86 80 71 54 41 44 48 52 48 61 85 89 91 89 92 93 85 91
27 55 99 84 64 71 72 62 53 62 59 58 60 65 89 86 54 40 52 55 51 48 41 42 38 32 30 25 18 12 13 12 15 20 26 36 49 63 73 75 75 77 80 79 79 82 83 82 83 83 79 72 64 56 50 48 48 47 46 43 42 41 43 47 44 46 50 58 66 61 60 58 55 51 51 75 96 83 65 64 57 50 44 44 58 65 66 59 60 72 81 92 94 93 87 80 92
23 51 99 99 75 70 65 61 61 58 64 77 65 61 72 81 74 43 49 58 51 53 44 43 42 36 33 29 23 14 12 13 13 19 22 26 39 58 75 81 84 88 89 87 86 88 88 92 95 96 98 92 83 72 63 60 54 51 52 49 49 50 52 61 57 52 52 53 61 57 56 59 58 55 47 63 91 80 55 55 51 46 48 55 73 74 61 57 68 82 90 98 95 89 79 74 90
27 52 98 95 67 72 71 75 87 63 68 95 73 69 68 66 86 59 47 57 50 53 49 44 44 40 36 32 27 16 12 12 12 16 20 22 28 41 54 60 66 75 79 83 87 88 88 92 95 96 94 92 97 92 82 79 74 65 63 60 58 63 63 71 71 62 58 55 59 58 56 59 57 57 49 54 77 75 58 57 54 53 58 67 76 73 66 68 83 96 96 98 95 84 73 74 93
29 49 94 87 57 79 86 84 99 70 66 96 78 80 71 48 82 78 54 59 53 52 52 46 46 43 38 36 31 19 13 12 11 13 18 22 25 30 37 37 37 43 52 65 77 83 85 84 87 91 83 85 100 100 94 97 97 90 86 76 60 65 65 67 77 68 61 59 61 63 62 59 56 57 51 52 62 64 60 58 55 61 69 70 77 83 86 90 96 99 96 100 97 78 68 82 98
24 34 80 94 69 77 88 85 91 78 75 85 63 66 64 39 69 87 66 64 59 54 54 49 47 46 39 37 33 22 13 12 12 11 14 20 27 34 38 30 24 27 32 39 50 59 63 60 62 76 86 93 93 84 96 105 103 99 97 88 70 77 78 74 87 79 67 65 60 63 71 64 54 53 50 51 54 53 58 62 59 65 71 66 81 95 96 101 100 94 96 103 94 71 70 89 92
21 25 55 90 89 74 80 86 81 82 89 79 52 48 47 42 67 89 82 70 63 57 53 51 47 46 40 38 36 24 14 12 12 11 11 14 21 28 29 22 19 25 28 27 30 34 36 34 33 56 88 102 87 70 94 108 100 99 101 98 88 89 90 85 93 92 85 82 67 56 65 64 52 50 52 50 50 58 64 67 64 65 68 67 89 103 100 100 88 87 99 100 85 70 79 87 78
19 26 32 65 93 78 71 82 82 83 90 83 62 45 37 56 74 85 97 80 65 62 52 51 47 44 42 39 37 26 16 13 11 11 10 11 14 17 18 17 17 19 22 23 22 22 23 24 24 45 76 93 85 68 88 106 94 93 98 96 94 96 95 93 97 101 100 99 87 67 66 63 54 52 55 55 56 69 72 67 66 65 64 72 98 108 101 92 77 89 104 93 77 75 85 82 70
13 26 27 48 87 90 73 71 83 89 95 92 69 47 38 62 71 70 100 91 70 66 52 51 48 45 43 38 37 29 19 14 12 11 10 11 11 13 14 15 17 16 17 17 16 18 22 28 26 33 47 58 64 62 80 100 92 94 96 83 91 101 92 91 98 101 101 103 101 92 85 68 64 69 65 66 61 63 71 70 68 63 62 76 101 107 102 93 83 98 104 87 74 75 86 82 70
9 20 25 36 65 89 87 72 79 94 102 94 68 56 43 55 67 64 95 99 77 69 55 50 47 46 43 35 37 32 22 17 14 12 11 11 11 12 13 13 16 16 17 15 14 16 21 26 22 23 28 32 40 52 80 101 98 101 101 85 92 101 88 90 99 100 99 103 102 102 100 72 69 85 80 78 64 59 72 76 74 72 77 89 103 104 99 94 91 101 98 78 70 76 86 88 76
8 14 23 30 38 60 87 86 83 97 104 84 63 66 50 51 70 65 85 97 82 74 57 50 47 46 42 34 36 33 24 19 17 14 12 12 12 13 13 13 15 15 17 15 14 14 15 16 15 16 23 34 38 49 84 100 87 85 96 96 98 101 95 95 100 102 100 102 102 103 102 71 62 83 92 92 74 65 71 75 87 97 102 104 106 104 99 99 98 102 92 69 66 76 85 93 81
8 10 17 27 30 48 85 95 92 102 100 73 61 72 57 57 74 67 84 93 83 78 58 47 48 44 39 34 35 35 27 21 20 17 15 15 14 15 15 13 13 15 16 16 15 14 14 14 14 14 15 31 41 52 80 89 81 84 94 100 101 101 99 99 101 104 100 102 103 103 101 71 61 87 101 96 75 66 70 73 87 100 107 104 102 104 105 105 103 103 93 74 72 78 87 96 83
8 8 14 21 29 65 101 101 98 101 86 63 63 74 62 68 77 69 89 95 82 78 57 45 49 45 37 33 35 35 29 24 23 22 18 17 17 17 17 15 13 14 15 16 16 14 15 15 14 15 12 19 32 50 71 79 90 101 99 98 102 101 100 101 102 102 100 100 100 103 106 81 72 95 101 88 70 70 78 76 76 81 94 101 100 101 103 102 100 103 99 92 94 92 94 96 83
8 6 11 17 24 70 109 101 96 94 73 54 61 77 73 79 78 66 82 91 84 76 56 48 50 48 40 32 35 36 31 26 24 26 23 20 20 20 19 17 13 12 13 14 16 15 15 16 14 14 13 12 20 40 55 63 79 95 97 98 102 101 98 100 102 102 100 99 95 93 99 90 85 95 96 86 75 79 78 70 73 76 87 98 99 101 104 103 100 101 101 105 109 104 100 94 79
9 6 8 14 19 57 100 103 97 93 74 52 58 79 82 86 78 62 67 79 87 76 56 53 51 51 47 35 34 37 33 28 26 27 27 24 22 23 23 20 15 12 12 13 14 16 15 16 15 13 13 11 17 32 46 57 70 84 96 101 100 101 100 99 100 101 100 98 86 77 89 98 94 94 95 87 83 91 83 69 73 79 92 100 99 105 108 104 101 101 102 106 107 103 100 88 70
7 8 7 11 15 38 80 102 103 102 85 58 61 77 78 82 76 58 57 77 93 78 59 57 53 53 53 40 34 37 34 29 28 28 30 30 26 27 27 24 19 13 12 12 12 16 17 17 15 13 13 12 15 24 38 58 70 76 88 95 91 91 94 97 101 102 102 102 87 79 92 97 94 100 100 91 91 102 97 89 88 88 100 103 101 107 105 100 100 101 102 103 102 100 94 77 57
7 8 7 9 13 22 50 75 91 106 97 73 70 76 78 82 72 53 49 75 95 80 64 62 57 57 58 46 34 36 36 30 29 29 31 33 31 30 31 29 23 17 13 12 11 13 15 17 16 14 13 12 13 15 25 44 63 72 80 89 88 86 89 94 101 102 101 103 96 92 95 93 98 104 97 89 95 102 104 107 103 99 103 102 102 105 101 101 101 102 102 101 100 92 78 58 44
6 8 7 7 10 15 27 40 69 101 103 90 79 74 85 87 71 54 47 70 95 83 68 67 61 57 61 52 36 36 37 31 30 29 31 35 36 34 33 33 28 20 15 12 10 10 11 13 15 14 14 13 13 14 16 25 43 64 78 89 94 95 98 101 103 103 104 103 98 96 94 96 102 100 93 91 92 97 105 104 95 97 103 100 101 101 100 104 103 100 96 90 80 65 52 42 38
6 7 7 8 7 12 18 24 55 95 102 96 84 76 89 90 72 60 56 70 93 90 74 71 63 51 60 56 38 37 38 33 31 30 31 34 38 37 35 36 32 24 17 14 11 9 10 10 12 14 14 14 14 16 17 17 24 44 66 80 84 84 88 101 107 104 101 95 95 99 99 100 100 93 91 88 85 93 102 99 93 98 101 100 102 101 102 103 95 87 77 65 51 40 38 38 41
7 7 6 8 7 8 15 20 44 81 95 95 93 91 97 98 82 64 62 71 89 97 81 75 67 46 54 59 41 37 40 36 31 31 32 32 37 40 39 39 38 31 21 18 14 10 10 10 11 12 13 14 14 17 20 19 18 25 43 61 73 74 72 82 93 95 94 93 96 97 94 92 87 84 84 79 80 94 102 101 102 102 100 101 103 102 101 93 80 72 59 43 35 35 39 42 47
7 8 6 7 7 7 11 14 34 67 89 98 101 101 99 103 90 64 63 76 91 103 85 76 72 49 50 57 45 40 41 38 32 32 33 31 36 41 44 44 45 42 30 23 18 11 10 10 10 11 12 14 13 17 23 23 20 18 23 38 58 72 76 78 81 84 88 89 87 85 87 90 90 88 82 70 70 86 96 99 102 102 101 102 101 98 91 80 72 62 45 35 40 45 47 49 50
7 7 6 7 6 7 8 10 33 66 88 101 103 100 99 103 91 66 67 79 92 102 89 79 74 55 52 55 48 45 42 38 32 31 34 31 33 40 47 50 52 53 42 30 23 14 10 11 11 11 11 13 14 16 23 27 23 19 18 22 32 46 62 74 78 80 82 84 86 88 89 88 87 82 73 70 78 93 101 102 101 99 97 95 91 86 80 78 76 63 47 48 55 54 52 51 50
8 7 6 7 6 7 8 6 22 51 82 102 101 100 102 100 90 73 67 74 86 97 91 83 73 57 55 54 51 51 44 39 34 30 34 33 31 37 45 52 57 60 54 41 29 18 12 11 11 12 11 12 14 14 20 28 27 23 22 21 21 24 32 44 55 64 74 81 82 78 77 84 88 86 86 93 98 96 92 88 83 81 80 76 74 76 83 90 90 81 74 70 63 56 54 54 55
8 8 6 7 7 6 7 8 10 29 75 104 101 101 103 98 95 81 67 70 84 93 88 81 70 57 57 56 52 56 49 40 36 30 33 35 31 34 41 49 58 63 62 52 38 24 14 11 11 12 11 11 12 13 16 23 28 27 25 25 23 23 23 25 31 38 45 50 47 44 53 71 81 82 83 83 75 66 64 65 67 68 65 60 61 67 77 85 85 84 83 74 62 56 55 56 56
8 8 7 7 7 7 5 8 8 19 65 102 100 100 103 99 98 90 76 77 87 88 81 74 66 60 62 59 52 58 56 43 37 32 32 35 32 34 36 43 55 62 66 59 45 32 19 11 11 12 12 11 11 12 13 16 22 25 26 26 24 23 24 25 27 29 31 33 36 40 45 50 53 54 55 54 53 55 59 61 60 57 53 53 58 62 67 73 75 74 71 62 54 50 49 51 50
8 7 8 8 6 8 6 6 8 12 49 95 103 98 102 100 99 100 91 86 87 81 72 62 61 70 72 63 52 56 61 50 40 33 32 35 32 33 34 37 49 59 65 63 50 39 26 13 11 12 12 12 12 11 12 13 16 21 23 25 24 23 23 23 25 27 29 33 37 41 43 44 44 43 43 43 46 48 49 46 43 41 43 48 55 62 65 66 63 60 55 48 44 43 44 50 58
8 7 8 9 6 7 6 6 7 8 37 85 104 100 101 102 98 104 96 83 84 78 64 49 51 75 79 64 53 53 63 59 44 34 32 35 32 31 32 34 44 53 62 64 52 43 34 20 12 12 12 12 13 12 13 13 15 18 20 22 22 22 22 22 22 23 25 27 31 34 36 37 37 36 37 38 38 38 37 36 37 39 42 47 54 60 60 55 50 43 40 41 44 44 48 60 70
7 8 7 8 7 8 7 6 6 9 29 61 90 101 101 101 100 104 93 75 79 73 55 41 40 63 73 63 54 50 61 66 53 38 32 35 33 31 30 30 37 45 55 62 54 44 38 30 18 11 12 12 13 13 13 14 15 16 18 20 21 22 22 22 22 23 24 25 27 30 32 34 37 39 41 41 40 38 38 39 39 40 42 47 51 52 52 47 42 38 39 44 44 46 56 65 65
6 7 7 8 8 8 7 7 6 8 18 34 69 100 102 100 100 102 91 73 78 71 51 43 39 50 62 60 55 47 54 68 62 43 33 35 34 31 30 27 30 34 42 51 52 45 39 38 29 15 11 12 12 14 14 15 15 16 17 18 19 20 21 21 22 23 25 26 27 29 31 34 36 39 40 38 37 36 37 37 35 35 37 40 42 43 43 41 38 39 43 45 44 49 59 60 60
6 6 7 9 8 8 8 7 7 7 14 21 44 81 99 104 101 101 95 78 78 73 56 53 49 49 57 58 55 49 48 62 68 51 34 35 35 32 31 27 28 28 29 35 43 45 40 40 38 22 12 11 11 13 14 15 16 17 18 19 20 21 21 22 24 26 28 29 31 32 32 31 32 33 34 33 33 33 33 32 30 31 33 34 37 39 39 38 37 39 44 46 44 47 53 57 62
7 6 7 9 7 9 8 7 8 7 16 25 32 53 75 94 103 102 100 90 84 75 61 59 54 49 54 57 59 55 47 52 66 58 38 36 37 33 32 30 29 28 27 27 32 40 40 38 40 30 18 13 11 11 13 13 15 16 17 18 19 21 22 23 24 27 30 32 33 34 33 31 32 32 32 32 32 31 30 30 30 31 32 33 35 36 38 40 39 41 46 49 46 46 51 56 56
8 7 6 8 7 10 8 8 10 6 15 37 53 56 56 81 104 101 100 102 94 74 60 63 59 49 48 54 58 59 52 46 58 61 43 36 39 35 33 32 31 30 28 27 27 32 37 36 37 35 29 23 15 11 11 12 13 14 15 16 17 18 20 21 24 27 29 31 31 32 32 33 34 34 35 35 33 31 29 29 29 29 31 33 34 35 37 41 42 44 47 48 48 48 48 48 49
8 8 7 7 7 9 9 9 11 9 15 36 57 59 60 88 107 101 99 103 97 71 57 66 68 57 48 48 55 60 58 46 51 63 49 37 40 38 34 32 34 33 30 29 26 27 32 34 34 33 34 33 26 16 11 11 12 13 14 16 16 17 18 19 22 26 28 31 30 30 30 31 33 34 35 35 34 32 30 28 28 28 28 29 31 32 34 39 41 40 40 40 42 44 44 48 55
7 8 8 7 7 8 9 9 9 11 17 30 36 37 67 103 101 96 102 102 96 71 56 66 73 67 54 50 56 62 65 52 47 62 56 40 41 40 36 33 34 35 34 32 30 27 28 32 33 31 31 35 34 27 19 14 11 11 13 15 17 17 18 19 21 24 27 31 32 30 28 28 30 33 35 35 33 31 30 30 28 26 25 25 26 27 29 32 33 31 31 33 37 42 48 56 64
7 8 9 8 7 7 9 10 10 10 15 29 30 32 74 103 85 87 103 102 96 73 59 66 70 71 62 58 63 64 69 61 46 60 62 45 41 42 38 35 33 35 35 36 35 32 28 30 32 30 29 30 34 33 29 24 18 14 12 12 15 16 17 18 20 22 25 29 32 30 27 27 27 30 33 34 31 29 29 29 28 25 24 23 23 25 26 26 26 27 29 33 39 47 55 63 67
6 7 9 9 8 7 7 9 10 9 11 22 32 39 66 76 64 84 104 101 96 77 63 63 64 71 66 62 71 69 73 70 51 56 66 52 42 43 41 37 35 34 35 37 39 38 32 30 32 31 29 29 31 32 33 33 30 25 21 15 13 14 15 17 17 20 22 25 30 31 28 26 26 26 29 30 29 26 27 27 25 23 23 24 24 26 27 27 28 30 33 39 46 53 59 63 63
6 7 8 8 9 7 7 9 9 11 11 12 22 29 44 48 47 79 105 101 98 84 66 60 61 67 65 64 73 72 75 79 60 53 66 60 45 43 43 40 38 37 37 37 38 41 37 32 33 32 31 30 30 31 31 33 35 33 31 25 19 15 14 15 15 17 19 20 26 31 29 25 25 25 23 24 24 24 25 25 24 24 25 25 24 26 28 30 31 34 37 43 50 55 57 56 52
6 7 7 7 9 8 7 8 8 12 12 19 37 36 34 41 42 69 102 102 100 92 71 63 63 62 63 64 65 67 75 83 70 56 65 68 51 44 45 43 43 41 41 40 38 41 40 35 34 34 33 32 31 32 30 30 33 35 35 33 29 24 19 16 16 16 17 18 23 30 30 24 23 24 22 21 22 23 25 25 24 24 26 26 25 26 30 33 34 36 39 43 46 47 47 44 39
7 7 7 6 8 9 8 7 8 10 12 34 65 54 36 50 54 68 99 102 101 101 79 67 68 61 60 63 58 62 72 79 77 64 63 68 57 47 46 45 46 45 43 42 39 40 42 39 36 35 35 34 32 31 31 30 32 35 36 36 35 34 30 25 20 18 18 19 22 27 29 24 21 22 22 21 20 22 24 26 26 25 26 28 29 29 31 32 33 35 38 41 40 39 37 34 30
7 7 7 6 7 8 8 8 7 9 12 31 58 50 37 52 57 65 95 104 103 106 87 74 76 64 56 60 56 60 69 72 77 71 63 65 61 52 48 45 46 47 46 43 42 41 42 42 39 36 35 35 34 32 31 30 31 34 36 37 37 38 38 35 29 24 20 19 19 22 26 26 21 21 22 21 20 21 23 24 26 26 27 28 29 31 31 30 31 33 36 38 38 39 35 29 27
7 6 6 6 7 7 8 9 8 9 10 19 36 44 44 47 43 57 94 106 99 103 98 87 90 77 58 56 54 57 67 68 70 73 65 62 63 59 52 48 45 47 48 45 44 43 41 42 42 39 36 34 34 34 33 32 31 33 35 36 37 38 40 41 38 34 29 24 19 18 22 26 24 21 20 20 19 19 21 21 23 25 26 28 28 29 28 27 29 31 34 35 37 42 39 29 29
7 5 6 6 6 7 8 9 10 10 9 11 19 34 48 52 49 63 96 101 83 91 104 98 98 93 70 57 55 58 66 66 66 72 69 62 64 65 59 53 48 47 49 47 45 46 43 40 41 41 38 34 32 34 35 35 33 33 34 35 36 37 39 41 42 42 40 37 31 22 20 23 26 25 22 20 19 19 20 20 20 21 23 25 27 28 28 27 28 28 31 33 36 42 39 30 32
8 6 6 6 6 7 8 9 10 10 11 10 11 19 34 48 54 64 83 81 59 66 96 102 99 101 86 63 53 57 63 65 66 69 72 65 62 68 68 61 54 48 48 48 46 47 46 41 40 41 41 37 33 32 34 36 36 35 35 35 35 36 37 38 41 44 44 44 43 36 28 22 23 26 25 22 19 18 19 20 20 20 21 23 25 27 29 30 31 32 33 34 37 39 34 29 34
8 7 6 5 6 7 7 9 10 10 9 10 11 11 19 33 45 52 55 48 32 38 75 101 101 99 94 71 52 53 60 64 65 66 70 65 62 73 77 69 61 52 47 48 46 47 49 45 42 41 42 40 36 33 33 34 37 38 38 37 37 37 36 36 38 41 43 45 46 46 42 34 27 23 23 23 22 19 17 19 21 21 20 22 23 25 27 29 31 32 32 33 32 31 30 31 35
9 8 7 5 6 7 8 10 12 11 9 9 12 10 12 21 32 40 39 31 21 19 47 88 103 101 98 79 56 54 65 70 67 65 69 69 68 76 79 74 70 59 49 49 48 48 51 49 45 42 42 43 39 35 34 34 36 38 40 40 40 40 39 37 37 39 41 43 45 46 47 45 40 32 26 22 21 21 19 17 19 22 21 21 22 25 26 27 28 29 30 30 29 29 31 34 36
10 8 8 6 6 7 8 11 14 14 9 8 10 11 13 14 18 28 30 27 21 15 26 53 77 95 104 90 67 63 78 84 71 63 70 73 70 71 73 76 78 70 57 52 50 48 50 52 49 45 44 44 43 40 37 36 37 38 40 41 43 45 44 41 38 38 40 42 44 45 46 48 49 46 42 34 25 21 20 18 18 19 21 20 21 23 26 27 29 30 31 30 31 32 33 36 37
10 10 8 6 7 7 7 9 11 13 13 12 10 12 17 13 11 17 18 21 26 24 27 34 49 84 108 101 79 67 75 82 70 62 70 74 69 64 65 70 79 80 67 57 55 52 49 50 50 49 48 47 45 44 42 38 39 40 41 41 43 45 48 48 45 41 40 42 44 44 44 46 49 52 53 51 44 33 24 20 18 18 20 21 20 21 24 28 30 32 33 33 34 35 35 37 39
11 11 10 8 7 7 8 9 8 9 15 21 18 12 16 15 11 14 12 16 26 33 50 66 74 94 108 102 86 68 69 80 71 61 69 73 63 58 61 66 75 83 77 65 61 57 50 47 48 49 51 51 49 46 45 42 40 41 43 43 44 44 46 48 49 49 45 43 44 45 46 46 47 51 54 57 57 53 43 31 22 18 18 20 21 21 22 25 31 37 42 43 42 42 42 40 39
13 12 14 13 8 7 9 9 8 7 10 27 34 18 14 19 14 12 13 14 19 28 57 93 104 105 104 100 92 74 70 84 82 69 72 73 61 59 66 68 70 81 85 76 67 61 54 48 47 49 51 53 51 48 47 45 43 42 43 44 46 46 46 46 47 50 52 50 46 45 46 48 49 48 50 55 57 58 57 51 40 28 21 18 19 21 23 25 30 38 46 48 44 43 47 47 42
14 13 17 18 13 9 10 8 8 9 9 32 51 28 11 23 20 11 13 15 17 16 36 79 106 111 105 102 97 77 66 85 98 86 76 69 58 57 63 63 63 73 82 81 74 67 61 54 50 52 53 52 51 49 48 47 46 45 45 46 48 49 49 49 50 49 51 53 54 51 47 47 51 52 50 51 55 57 57 57 55 48 37 27 20 17 19 23 27 33 39 40 36 34 40 48 48
14 15 16 19 17 11 11 10 8 9 9 26 48 32 11 20 25 16 11 15 23 16 16 51 90 106 106 103 103 88 70 80 94 84 71 64 55 54 62 63 61 66 77 86 86 81 76 69 60 56 55 54 53 51 49 49 49 49 49 49 49 50 51 52 55 55 53 53 54 57 56 51 50 53 55 53 53 57 58 58 59 58 53 47 38 29 22 18 19 22 26 28 29 27 28 37 47
14 16 16 16 17 12 11 11 8 9 9 13 27 28 16 16 22 22 13 13 28 27 12 27 64 89 94 94 102 102 83 77 82 79 72 64 57 62 72 73 67 71 82 87 86 85 83 78 71 64 60 59 58 55 54 55 56 56 56 55 53 51 50 52 55 58 60 61 59 57 60 61 58 54 55 56 55 56 59 61 63 63 60 56 52 47 41 33 26 21 19 18 19 21 21 25 38
14 16 17 16 16 13 11 11 10 10 11 10 14 18 22 29 33 30 18 11 27 35 19 17 42 67 75 78 97 111 96 78 79 85 83 71 65 77 90 89 83 84 88 86 82 84 85 83 83 80 74 69 65 62 60 60 63 65 64 63 62 58 51 50 52 56 61 67 70 66 61 62 66 65 60 58 56 56 58 61 64 68 69 65 60 56 52 50 45 39 34 28 22 20 18 18 26
Wind_Speed
4 5 7 7 6 9 11 13 15 17 20 22 23 25 27 30 33 36 37 38 39 40 38 37 36 33 30 28 27 24 21 18 15 13 15 17 16 14 13 13 11 10 9 8 6 4 5 7 11 13 15 18 21 23 23 22 20 19 20 20 19 20 19 19 19 18 17 16 14 13 12 10 9 8 7 6 5 5 3 3 5 7 7 7 7 3 4 6 7 8 8 12 16 18 19 19 19
3 4 5 5 5 8 12 15 16 16 19 21 22 24 26 29 32 34 36 37 38 39 38 37 36 35 32 30 28 26 23 20 16 13 13 15 16 14 13 12 11 10 9 9 8 8 6 5 6 7 8 10 14 19 21 21 19 18 19 18 18 19 20 19 18 16 14 13 12 12 10 8 7 6 5 5 6 6 5 5 7 7 7 6 5 4 2 5 7 8 8 12 17 19 21 21 20
2 4 4 4 5 8 11 13 15 16 19 20 19 23 26 28 30 32 35 36 37 38 38 37 37 36 34 32 30 28 25 22 18 15 12 13 15 15 13 12 11 11 9 9 8 9 9 8 6 5 4 3 4 8 14 16 16 16 16 16 16 17 18 17 16 14 12 11 10 9 8 7 6 5 6 7 7 7 6 6 6 5 4 3 3 2 2 5 8 9 9 12 17 20 22 21 19
1 2 3 4 6 7 9 11 13 16 17 18 18 21 26 27 29 31 33 35 36 37 38 38 37 37 36 34 32 29 27 24 21 17 13 12 14 14 14 12 11 11 10 10 9 9 9 9 8 7 6 5 5 4 5 9 12 14 15 15 15 15 16 16 14 13 11 9 9 9 8 6 6 6 8 9 8 6 6 5 5 3 2 1 1 1 4 7 9 10 10 12 16 20 22 21 17
2 1 1 4 5 6 7 9 11 14 14 16 16 20 25 27 28 29 31 33 35 36 37 38 37 37 36 36 33 31 28 26 23 20 16 13 13 14 13 12 11 10 9 9 9 9 9 8 8 8 8 7 6 6 5 4 6 9 11 13 14 14 13 13 11 10 9 9 10 9 8 7 6 7 8 10 7 4 4 6 5 4 3 3 2 1 4 8 9 10 11 13 16 19 21 20 16
3 3 2 4 5 6 7 8 9 11 14 16 16 18 22 25 27 27 29 31 33 35 36 37 37 37 37 37 35 32 30 28 25 22 18 15 14 14 13 11 10 9 8 8 8 8 7 7 7 7 7 7 6 6 5 5 5 5 6 7 8 9 8 7 6 6 7 9 10 9 7 6 6 6 8 9 7 4 4 5 4 4 4 4 2 2 6 9 9 9 11 13 16 19 20 18 15
4 3 1 4 6 6 7 8 8 10 14 15 15 17 19 22 26 26 27 30 32 33 34 36 37 37 38 38 36 34 31 29 27 23 20 17 15 15 13 11 9 9 8 8 7 7 6 6 5 5 5 5 5 4 5 4 4 4 4 4 5 5 5 4 3 4 6 8 10 9 7 6 6 6 7 9 8 5 3 3 3 3 3 3 3 5 8 9 10 10 12 14 16 19 19 16 15
5 3 2 4 6 5 6 7 8 10 13 14 15 15 17 20 24 25 26 28 30 32 33 35 37 38 38 38 38 35 32 30 28 25 21 19 18 16 13 10 9 8 8 7 6 5 5 5 4 3 4 4 4 4 4 4 4 3 2 2 3 3 3 4 4 4 5 6 9 8 6 6 6 6 8 10 10 6 3 2 2 2 2 3 4 6 8 9 10 12 12 13 16 19 18 16 16
5 5 5 5 5 3 4 6 7 9 11 13 13 14 16 18 20 23 24 26 29 30 32 34 36 37 38 38 39 37 33 31 30 27 24 22 21 18 15 12 10 9 8 7 5 4 3 3 3 2 3 4 5 4 3 4 4 3 2 2 3 3 4 5 4 4 5 6 7 8 8 8 7 7 7 9 10 7 4 3 3 1 1 2 4 5 7 9 11 12 12 14 17 18 18 16 16
7 6 5 6 4 2 2 3 4 6 8 9 8 11 15 16 16 20 22 24 27 29 31 33 35 37 38 39 39 38 35 32 30 29 27 25 22 20 17 15 13 11 8 7 5 4 3 2 2 2 3 4 4 4 4 4 3 3 3 3 3 4 4 4 4 3 4 6 8 9 9 9 9 8 7 8 10 8 5 4 3 2 1 3 5 6 7 9 11 11 10 15 19 18 17 15 17
10 8 6 6 5 2 2 1 2 3 5 4 5 10 13 14 15 17 20 23 26 28 30 31 34 35 37 39 39 38 36 33 31 30 29 27 24 21 19 18 17 14 12 9 7 5 4 3 3 2 3 4 3 5 6 6 2 5 6 4 4 5 6 5 4 2 1 3 6 8 9 9 9 8 8 8 8 7 5 5 4 3 3 5 7 7 7 8 9 8 9 16 19 17 15 15 17
12 10 8 8 8 4 3 3 2 1 3 5 8 11 12 14 14 14 18 21 24 26 28 30 32 34 36 39 39 38 37 34 32 31 31 29 27 23 21 21 19 18 16 14 11 8 6 6 4 2 3 3 3 6 8 7 5 7 8 5 4 4 5 7 5 3 1 1 3 6 8 8 8 8 8 7 7 6 5 5 5 6 6 7 8 8 6 6 7 7 10 16 17 15 13 15 17
13 13 11 10 10 6 6 7 5 3 4 7 9 11 12 13 12 12 15 18 22 24 25 28 30 32 35 37 38 38 37 35 33 32 31 31 29 27 25 23 22 20 18 17 15 12 10 9 7 3 3 4 4 7 10 9 8 7 7 5 5 4 5 6 6 6 3 2 2 4 6 7 8 7 7 7 6 5 5 6 7 7 6 6 8 8 6 6 8 8 12 15 15 13 12 16 18
15 15 13 11 11 9 9 10 9 7 5 7 10 11 11 10 9 11 13 16 21 22 23 26 28 31 34 36 37 37 37 35 34 32 32 32 31 30 28 25 24 22 20 18 17 15 13 13 12 7 2 3 5 9 12 11 9 9 9 6 5 7 8 7 7 9 7 6 5 5 5 6 6 5 5 6 7 6 6 7 7 6 5 5 7 8 7 8 9 9 13 14 13 12 12 16 18
15 16 15 14 12 11 11 11 11 9 6 7 9 11 11 8 8 10 11 14 19 20 21 23 26 29 31 34 36 37 36 35 34 32 32 33 33 32 30 28 26 24 23 21 19 18 16 16 15 11 6 3 5 10 12 11 9 9 10 8 7 8 10 10 10 11 11 9 8 7 6 6 5 5 6 7 8 7 6 6 6 5 4 5 7 7 8 10 10 11 13 13 13 12 13 16 19
17 17 17 15 14 13 12 12 11 10 7 8 9 10 10 8 7 9 10 13 17 19 19 21 24 27 29 32 35 36 35 34 34 33 32 33 34 34 33 30 28 26 24 22 21 20 19 18 17 15 10 6 6 10 12 12 13 11 11 10 10 9 10 12 11 12 11 10 9 9 9 8 9 9 9 9 8 7 7 7 7 6 6 7 7 7 9 10 10 12 13 12 13 13 14 17 18
18 18 18 17 15 13 13 13 12 10 8 8 8 9 8 8 7 7 9 12 16 17 17 19 23 26 28 31 33 34 34 34 33 32 32 33 34 35 34 33 30 27 25 23 22 21 20 20 19 17 13 9 7 10 13 14 14 13 12 12 12 11 11 12 11 11 10 9 9 9 10 9 10 12 10 8 8 7 8 9 8 8 8 8 8 9 10 11 12 14 14 12 14 14 15 17 17
19 19 19 18 16 14 13 14 14 13 9 8 8 8 7 8 7 5 7 11 14 15 16 18 21 24 27 29 32 33 33 33 33 32 32 33 34 35 35 34 32 29 25 23 22 21 20 20 19 18 15 11 8 9 11 13 15 14 13 14 14 12 11 12 12 11 10 10 10 10 10 10 10 11 9 8 8 7 8 9 9 9 9 9 9 10 11 12 13 15 15 13 14 15 16 17 17
21 20 20 19 19 16 14 14 16 14 11 8 7 8 7 7 6 5 5 8 13 13 14 16 19 23 26 28 30 32 32 32 32 32 32 33 34 35 36 35 34 31 27 23 21 20 19 19 19 19 18 14 11 9 9 11 15 17 16 15 15 13 12 13 14 14 13 13 12 11 11 10 10 10 9 8 8 8 8 9 9 9 10 9 9 10 12 13 14 16 16 13 14 16 17 18 17
24 22 22 21 21 19 16 15 16 14 11 10 8 8 7 6 6 5 4 7 11 11 13 15 18 22 24 26 28 30 31 31 32 32 32 32 33 35 36 36 35 33 29 25 22 20 19 19 19 19 18 16 13 10 9 9 11 16 17 16 17 17 16 16 15 16 17 15 13 12 11 11 9 9 10 9 8 8 9 9 9 10 9 8 9 11 13 13 13 15 14 14 15 16 18 18 16
26 24 24 23 24 23 19 15 14 14 14 12 10 9 7 6 6 4 4 7 9 10 11 14 17 21 23 25 27 28 30 29 30 31 32 31 32 34 35 36 36 35 32 28 25 22 20 19 19 20 19 17 15 11 9 9 8 11 15 17 18 19 20 19 17 17 17 16 15 13 13 11 9 9 9 8 8 9 9 9 10 9 7 7 9 12 13 12 12 12 13 14 16 17 18 17 13
28 27 26 25 25 25 23 18 14 15 16 13 11 10 7 7 7 5 5 6 7 8 10 13 17 20 21 24 25 27 28 28 29 31 31 31 31 33 35 36 37 36 34 31 29 26 24 21 20 20 19 19 17 14 12 11 9 8 11 14 15 17 19 19 19 18 18 16 14 14 13 10 8 8 9 8 9 9 8 8 8 8 7 7 10 12 11 10 11 12 14 16 17 18 17 13 8
31 29 29 27 27 26 25 22 17 16 16 15 13 11 8 8 8 6 5 5 5 6 7 12 16 18 21 22 23 25 27 27 27 29 31 30 31 32 34 35 36 36 35 33 32 30 27 25 22 21 20 20 19 18 16 14 12 10 9 10 12 13 15 18 19 19 16 14 13 12 11 10 8 8 8 7 8 8 7 6 6 6 6 8 10 10 9 9 11 14 15 16 16 14 12 8 5
33 32 31 30 28 27 27 24 19 17 18 17 15 12 10 9 8 6 4 3 4 5 5 10 14 17 20 20 21 23 25 26 26 27 30 30 30 32 33 34 35 36 35 35 35 33 30 28 25 23 21 20 21 20 19 18 16 14 11 9 9 9 10 13 17 17 15 13 12 10 9 9 8 8 7 7 7 7 6 5 6 6 6 7 7 7 9 11 13 14 14 13 11 9 7 5 4
36 35 33 32 30 29 28 25 21 20 20 19 17 15 12 11 9 8 5 3 4 4 4 8 12 15 18 18 19 21 24 25 25 25 28 29 29 31 32 33 34 35 35 35 36 35 33 30 27 25 23 22 22 22 22 21 19 18 15 13 11 10 10 11 13 13 13 11 9 7 7 7 7 6 6 6 6 6 6 5 7 6 6 6 7 9 12 13 12 11 10 8 7 6 5 5 5
39 37 36 33 32 31 29 28 23 21 22 19 18 16 14 13 11 8 6 4 4 4 3 7 10 13 15 16 17 19 22 23 23 23 26 28 28 29 31 32 33 34 34 35 36 36 35 32 30 27 25 23 23 24 24 23 22 21 19 17 14 12 11 10 10 10 10 9 7 5 5 5 6 6 6 5 5 6 5 4 5 5 6 8 10 12 12 10 8 7 6 5 6 5 5 6 6
41 40 38 36 34 33 31 30 25 22 22 19 17 16 15 15 12 10 9 6 6 5 3 5 9 11 13 14 15 17 20 22 22 22 24 27 28 28 29 31 32 33 34 34 35 37 36 34 32 30 27 26 25 25 25 24 24 24 23 21 18 15 13 10 9 7 6 5 4 4 4 4 4 4 3 2 3 5 4 4 5 6 8 10 10 9 7 6 6 5 4 5 5 5 6 7 7
43 42 40 38 37 35 33 32 28 25 22 18 16 15 15 15 13 12 12 8 8 7 4 4 7 9 10 12 14 15 18 20 21 21 22 25 27 27 27 29 31 32 33 34 35 37 38 36 34 32 30 28 26 26 25 25 25 26 26 24 22 20 17 14 11 8 6 3 2 1 1 1 1 1 1 1 3 4 4 5 6 6 7 7 6 5 4 4 4 4 4 5 6 6 7 8 8
45 44 43 41 40 37 35 33 31 30 23 17 17 16 15 16 14 14 13 9 9 9 7 5 5 7 8 9 12 13 16 18 19 20 20 23 26 26 25 27 28 30 32 33 34 36 38 38 36 34 32 30 28 27 26 25 25 26 26 25 24 23 22 20 17 14 12 10 9 9 7 5 3 2 1 1 2 1 1 2 3 3 3 4 4 4 4 4 4 4 5 6 7 7 8 8 8
47 46 45 44 42 39 38 35 34 34 26 18 19 20 18 18 17 15 14 11 10 11 10 8 6 6 6 7 9 11 14 16 18 18 19 21 24 26 26 25 26 28 31 32 33 35 38 39 37 35 34 33 31 29 27 26 25 25 25 24 24 24 24 23 21 20 19 18 17 15 13 10 9 7 5 4 4 4 5 5 4 4 5 5 5 5 5 5 5 6 6 6 7 7 8 8 8
49 49 47 46 44 42 40 38 36 37 31 22 21 23 22 22 20 17 15 14 12 13 14 11 7 5 4 5 8 9 12 14 16 17 18 19 22 25 27 26 26 26 29 31 32 34 37 39 39 37 36 35 33 31 29 27 26 25 25 24 24 24 24 23 22 21 20 19 18 17 15 14 13 11 10 9 8 8 7 6 6 6 6 6 6 6 6 6 6 6 6 7 8 8 9 9 9
51 51 50 48 46 44 43 41 40 38 35 29 23 23 24 25 22 20 18 17 15 16 17 14 8 4 4 3 5 7 10 12 14 15 16 17 19 24 27 28 27 27 28 30 32 33 35 38 39 38 37 36 35 33 31 29 28 27 26 26 26 25 25 24 23 22 21 20 19 18 17 15 14 13 11 10 9 9 8 8 8 7 7 7 7 7 7 7 7 7 7 8 9 9 10 10 10
53 52 51 49 48 47 45 44 43 41 38 35 29 25 25 26 24 22 22 20 19 19 19 17 10 6 5 3 3 6 8 10 11 13 14 14 17 21 26 28 28 28 28 29 31 32 34 36 38 38 37 37 36 35 34 32 31 30 29 28 28 28 27 27 26 25 24 22 21 19 18 16 15 14 12 11 10 9 9 9 9 9 9 8 8 8 8 8 8 8 8 9 9 10 11 11 12
54 53 52 51 50 49 48 47 45 44 42 38 34 30 28 27 25 25 25 23 23 22 19 17 11 8 7 4 2 3 6 8 9 11 12 12 14 18 22 27 29 29 29 30 30 31 33 34 36 37 37 37 36 36 35 34 34 32 31 31 31 31 30 30 29 28 27 25 24 22 20 19 17 16 14 14 13 12 11 11 11 11 10 10 10 10 10 9 9 9 9 10 10 12 12 13 14
54 53 53 53 52 51 50 49 48 47 44 41 39 35 31 28 26 28 28 26 25 23 19 16 13 11 10 7 3 2 4 6 7 8 10 11 12 15 18 22 26 28 29 30 30 30 31 33 34 35 36 36 36 35 35 35 34 34 33 32 32 32 31 31 30 29 29 27 26 24 23 21 20 19 18 17 16 15 14 14 13 13 13 13 12 12 12 11 11 11 11 12 12 13 14 14 14
54 54 54 54 54 53 53 52 50 49 45 41 40 39 36 31 29 31 32 29 27 24 20 18 15 14 13 11 5 1 2 4 5 6 8 9 10 12 15 18 22 24 27 30 31 30 30 31 32 33 35 36 35 34 34 34 34 33 33 33 32 32 31 31 30 30 29 29 28 27 26 24 23 22 21 19 18 18 17 16 15 15 15 14 14 14 14 13 12 12 13 13 13 13 14 15 15
56 55 55 55 55 55 55 54 52 52 48 41 38 39 39 35 33 34 34 31 30 25 22 20 17 15 14 13 9 3 3 1 3 4 7 8 8 9 12 15 19 21 23 27 30 30 30 30 31 32 32 34 35 34 34 33 33 33 32 32 32 32 31 31 31 30 31 30 30 29 28 27 26 24 23 22 21 20 19 19 18 17 16 16 15 15 15 14 14 14 14 14 14 15 16 17 18
57 56 56 56 57 57 57 56 55 54 50 44 42 41 40 39 38 36 34 33 33 29 24 22 20 18 15 14 11 6 4 3 1 3 5 7 7 7 9 12 16 18 20 23 26 29 29 28 29 30 31 32 33 34 34 33 32 32 32 32 31 31 31 31 31 31 32 32 32 32 31 30 28 27 25 24 23 22 21 21 21 20 18 17 16 16 16 16 16 16 17 17 18 18 19 20 21
57 58 58 57 58 58 59 59 58 56 52 49 48 45 43 41 40 38 35 34 34 32 28 25 23 20 17 14 12 9 7 6 3 3 4 6 6 5 6 9 13 15 17 20 23 25 27 28 27 28 29 30 31 33 34 33 33 32 32 31 31 31 31 31 31 31 32 33 33 33 32 32 30 29 27 26 25 24 23 22 22 22 20 19 18 18 19 19 20 20 21 22 22 22 22 22 22
56 58 59 59 59 60 60 61 60 58 54 51 50 49 46 43 40 39 37 35 34 33 30 27 25 22 19 16 14 12 10 8 5 4 5 6 6 6 5 6 9 12 14 17 20 21 24 25 25 26 27 29 30 31 32 33 33 33 32 32 31 31 31 30 31 31 32 33 34 34 33 33 32 31 29 28 27 26 25 24 24 23 22 21 21 22 22 23 24 24 25 25 25 25 24 23 23
56 57 60 61 61 61 61 62 62 60 57 53 51 51 49 46 42 39 38 36 35 33 31 29 27 25 22 18 16 15 12 10 8 7 6 6 6 6 5 4 5 8 11 13 17 19 20 22 24 24 25 27 28 29 30 32 33 33 33 33 32 31 30 30 30 30 31 32 33 34 34 34 33 33 31 30 29 28 26 25 25 25 25 24 24 24 25 26 27 27 27 27 27 26 25 25 24
57 58 61 63 63 62 62 63 64 62 59 56 53 52 50 48 46 42 39 37 36 34 31 30 29 27 23 20 18 17 15 13 11 9 8 8 8 7 6 4 3 4 7 10 13 16 18 20 22 23 23 24 26 27 28 29 31 32 32 33 33 32 32 31 30 30 30 31 32 33 33 33 33 34 33 32 31 30 28 27 27 27 27 27 27 27 27 28 28 29 29 28 27 26 26 25 25
61 61 63 64 64 65 64 64 65 63 60 55 51 52 53 50 49 47 43 40 37 34 32 31 30 29 25 22 21 19 18 16 14 11 10 11 10 9 8 6 3 1 4 7 10 13 16 18 19 21 22 22 23 25 26 27 29 30 31 31 32 33 33 32 31 30 30 30 31 32 33 33 34 34 34 34 34 33 31 29 28 28 29 29 29 29 29 29 29 29 28 27 27 26 26 26 26
67 66 65 64 65 66 65 64 65 64 61 56 51 52 54 52 51 50 46 42 38 36 35 34 32 30 27 24 22 21 20 18 16 14 13 13 12 11 10 8 5 3 1 4 7 9 13 16 17 19 20 21 22 23 24 25 26 28 29 30 31 31 32 32 32 31 31 31 31 31 32 33 33 34 34 34 34 34 33 31 30 29 29 30 30 29 29 29 29 28 27 26 26 27 27 27 28
72 70 66 65 65 65 65 64 64 65 64 61 57 55 55 55 53 52 49 44 41 40 38 36 35 33 30 27 24 22 22 20 19 17 15 15 14 14 12 10 8 6 4 1 4 7 9 13 15 17 18 20 20 21 22 23 24 25 27 28 29 30 30 31 31 31 31 31 31 31 31 32 33 34 34 34 33 34 34 33 32 31 30 29 29 29 28 28 27 26 26 25 25 26 27 28 29
73 71 68 66 65 65 66 65 65 66 66 66 63 58 57 57 56 55 51 47 44 43 40 38 38 35 32 30 26 24 24 22 21 19 17 17 16 16 15 13 11 9 6 4 0 4 6 10 13 15 16 18 19 20 20 21 22 23 24 25 27 27 28 29 30 31 31 32 32 32 31 30 31 33 34 34 33 32 33 33 33 32 31 30 29 29 28 27 27 26 24 24 24 25 26 28 30
73 72 71 68 65 64 64 65 66 67 68 68 67 63 60 59 58 58 55 49 46 44 42 41 40 37 34 32 28 26 26 24 22 21 20 19 18 17 16 15 14 11 9 6 3 2 4 7 10 13 14 16 17 18 18 19 19 21 22 23 24 25 26 27 28 29 30 31 31 32 31 30 30 31 32 33 33 32 31 31 32 32 32 32 31 30 28 28 26 25 24 23 23 24 26 28 30
74 75 74 70 67 64 63 66 69 70 71 69 68 68 65 62 60 60 59 55 50 46 45 43 42 40 37 36 32 28 27 26 24 23 22 22 20 19 18 17 15 14 11 9 6 3 2 4 8 10 12 14 16 17 17 17 17 18 19 20 22 23 24 25 25 26 27 29 30 31 31 31 30 30 30 31 32 32 30 29 30 30 31 32 32 32 31 30 28 27 26 25 25 26 27 28 29
76 77 76 72 69 66 66 69 71 73 73 69 68 69 69 66 64 62 61 59 55 51 48 46 44 41 39 38 35 29 27 28 27 26 25 24 22 21 21 19 17 16 14 11 8 6 4 3 5 8 10 11 14 15 15 15 15 15 16 17 19 20 22 23 23 24 24 26 27 28 30 30 30 30 29 29 30 30 30 29 28 28 28 29 31 32 32 32 31 30 29 29 29 29 29 29 28
79 79 77 74 71 69 70 70 71 73 73 71 69 69 70 70 68 66 62 58 56 54 51 48 46 43 40 39 35 30 29 29 29 28 27 26 24 23 23 21 19 18 16 13 11 8 6 4 3 5 7 9 11 13 14 14 14 14 14 15 16 17 18 20 21 22 22 23 24 26 27 28 29 30 30 29 29 28 29 28 27 27 26 27 28 29 31 32 32 32 31 31 30 30 29 28 27
82 81 79 77 75 74 74 72 71 73 73 72 69 68 70 72 72 70 65 59 55 55 54 51 49 45 41 39 37 35 33 32 32 31 28 28 27 25 24 23 21 20 18 16 14 11 9 7 4 3 5 7 9 10 11 11 11 12 13 14 14 15 15 17 18 19 20 21 22 23 24 25 27 28 29 29 29 28 27 27 27 26 25 25 25 26 28 29 30 31 31 31 29 28 27 26 25
84 82 80 79 78 78 77 74 72 71 70 69 68 68 70 71 72 71 68 62 56 55 54 52 51 46 39 40 42 40 37 35 34 32 30 31 30 27 25 24 23 22 20 19 16 14 12 9 7 4 2 4 6 7 8 9 9 10 11 12 13 14 14 14 15 16 17 18 19 20 22 23 24 25 26 27 28 28 27 26 25 25 24 24 24 24 25 25 27 28 29 29 28 27 25 24 23
85 83 81 80 80 78 77 76 73 70 68 67 68 69 69 70 71 71 69 65 60 57 55 52 52 47 40 42 45 42 38 37 36 33 32 33 32 29 27 26 25 24 22 21 19 17 15 12 9 7 4 2 2 4 5 6 6 7 8 9 10 11 12 13 13 13 14 15 16 17 19 20 21 22 23 24 24 25 26 26 25 24 23 22 22 22 22 22 23 24 26 26 26 24 23 22 21
86 85 82 81 80 78 77 76 73 70 69 69 68 69 69 70 71 71 69 68 64 60 57 55 54 51 45 44 45 43 40 38 36 34 34 35 34 30 29 28 27 26 24 23 21 19 17 14 12 9 7 5 4 2 2 2 4 5 6 6 7 8 8 10 11 11 11 12 13 14 15 17 18 19 20 21 21 22 23 24 24 24 22 21 20 19 19 19 19 20 21 21 21 21 20 18 18
87 87 84 81 80 80 78 77 74 71 71 70 68 69 70 69 70 70 69 68 66 64 61 59 57 54 50 46 46 45 43 39 38 37 37 37 35 32 31 30 28 27 27 25 23 21 19 16 14 12 11 9 7 5 3 1 1 3 4 5 5 5 6 6 8 9 10 9 10 10 11 13 15 16 17 18 19 19 20 20 21 22 22 21 20 18 17 16 16 15 15 14 14 15 17 16 15
86 88 87 84 83 82 80 77 76 74 74 73 69 68 70 70 68 69 69 68 67 66 65 63 61 58 54 51 47 46 45 43 41 39 38 37 35 32 31 30 28 28 28 27 26 24 21 20 18 15 14 12 10 8 6 5 4 4 4 5 6 5 4 4 5 6 8 8 8 8 8 9 10 12 14 16 17 17 17 18 18 19 19 20 20 19 18 16 14 13 12 11 11 12 14 14 13
85 89 90 88 86 84 81 79 78 77 76 74 70 68 69 69 68 68 69 68 67 66 66 66 64 61 58 55 51 48 46 45 43 40 38 37 34 32 30 29 28 29 30 30 29 27 25 23 20 18 15 14 14 12 10 8 7 7 7 6 6 7 7 5 4 4 5 7 7 6 5 6 7 8 9 11 13 15 15 15 15 15 16 17 17 18 18 17 16 14 13 12 12 13 13 13 12
83 88 90 89 87 85 83 81 80 79 77 75 73 71 69 69 69 69 69 69 68 67 67 67 67 64 61 58 55 51 47 46 44 41 40 38 36 32 31 31 31 32 32 33 31 29 27 24 21 19 17 16 16 15 14 12 11 10 9 9 9 8 8 8 7 5 4 5 6 6 5 5 4 4 5 7 9 11 12 13 13 13 13 13 14 15 15 16 16 15 15 14 14 14 13 13 12
Wind_Direction
351 3 15 12 355 353 7 14 16 20 17 13 14 19 27 32 29 28 28 28 30 31 31 31 32 33 33 32 33 35 36 53 65 56 58 64 62 61 63 62 61 66 76 84 93 127 168 182 194 207 215 217 218 222 227 232 232 225 221 223 229 235 240 244 249 256 263 269 277 286 291 293 295 294 288 283 265 226 195 162 153 150 165 174 181 214 346 6 9 5 359 357 355 354 353 350 344
358 3 3 8 359 352 5 18 19 13 16 13 11 19 25 30 30 28 28 28 29 30 31 31 32 33 33 32 31 34 35 41 58 60 54 61 66 62 61 61 58 61 67 72 77 83 101 130 165 189 203 215 221 224 225 227 227 222 216 216 223 230 235 244 250 258 266 269 272 276 278 279 279 270 254 234 220 199 174 147 133 135 160 175 190 222 304 351 352 344 339 345 351 351 350 348 346
353 11 5 7 357 347 3 17 20 15 18 16 10 19 24 28 30 27 29 29 29 30 30 31 32 33 32 32 31 33 35 35 44 56 51 51 62 63 59 61 62 63 67 72 75 76 80 89 103 123 141 152 186 214 220 223 222 218 216 216 222 228 235 245 254 260 266 267 263 258 258 255 243 226 213 200 193 191 182 151 133 134 144 154 173 208 323 350 343 334 325 328 341 346 345 345 346
319 27 9 359 351 341 358 5 13 20 22 20 13 19 23 26 29 27 28 29 29 29 29 30 31 33 32 32 32 32 34 34 35 45 49 43 53 60 57 58 62 64 69 73 76 76 75 73 75 77 83 89 95 124 190 211 217 218 221 226 230 234 241 248 254 257 260 257 245 238 234 226 213 199 198 195 185 189 190 162 161 175 160 172 200 260 340 350 339 329 320 318 331 339 341 342 347
284 214 296 334 341 338 347 342 1 24 24 21 13 15 19 23 28 27 27 28 29 29 27 29 31 32 32 32 33 32 33 35 34 37 43 40 45 55 53 52 56 59 64 70 72 71 70 68 67 65 66 70 77 89 107 149 189 209 219 227 233 236 238 241 243 246 246 235 225 224 214 200 195 195 198 196 184 176 180 169 177 200 225 264 260 285 331 340 337 328 322 322 328 334 337 340 347
274 246 287 318 320 330 334 325 348 24 24 18 10 9 11 17 27 25 26 29 29 29 27 27 30 31 31 31 32 33 33 34 35 35 38 38 43 51 51 48 50 51 53 57 62 62 63 62 60 60 60 62 68 77 87 105 130 162 186 199 210 215 216 218 217 222 223 215 210 204 193 189 192 198 200 196 186 166 166 174 190 218 250 270 250 315 328 327 329 327 326 326 329 332 334 339 347
268 254 296 311 306 318 325 331 352 19 20 14 7 7 5 11 24 24 25 29 29 29 27 25 28 30 30 31 32 33 34 33 35 36 37 39 43 48 48 45 44 43 41 39 44 51 55 57 56 55 56 61 71 77 85 95 113 131 150 163 166 168 167 161 154 172 197 203 199 191 188 199 206 207 203 193 185 181 175 185 219 249 280 285 293 317 321 319 320 327 332 330 332 333 332 339 346
261 234 195 264 283 309 329 345 3 14 17 12 3 4 1 3 19 23 23 28 28 27 27 25 26 28 30 30 31 33 34 34 34 35 36 40 45 47 45 39 35 34 30 27 30 39 46 50 49 50 57 69 83 98 102 95 100 108 124 149 159 160 150 147 153 172 188 194 194 195 205 218 226 222 210 194 189 195 198 230 262 273 293 304 319 320 318 318 321 328 337 337 334 332 330 338 347
247 221 202 234 260 302 337 355 4 10 23 20 3 352 352 354 11 20 21 26 26 24 25 25 25 26 28 29 30 33 35 35 34 34 34 39 44 46 45 39 33 28 25 27 31 40 38 37 42 48 65 69 74 96 114 100 92 90 107 145 161 170 165 167 178 198 208 207 209 217 225 231 235 229 217 202 199 208 225 270 295 288 277 341 338 323 319 319 325 332 340 340 335 331 329 339 349
231 227 216 224 250 280 322 11 0 358 29 31 1 340 344 347 0 15 18 22 23 22 24 25 25 25 26 28 30 32 35 36 35 34 34 37 42 44 42 38 34 31 29 32 37 43 31 16 19 52 73 74 70 81 99 96 93 132 153 156 151 158 151 149 164 190 217 218 223 230 232 235 233 227 219 209 208 218 235 266 291 282 253 346 337 318 317 320 327 335 339 334 331 329 329 342 351
229 234 224 218 234 248 256 329 331 338 18 12 335 334 340 345 353 8 14 20 22 21 23 24 25 24 24 26 29 31 35 37 35 35 35 36 39 40 36 33 33 34 36 38 41 38 26 11 8 54 85 90 90 85 96 103 137 195 191 167 140 148 134 117 135 140 171 218 225 226 228 231 229 222 215 211 212 223 243 260 277 272 272 319 325 315 316 322 328 335 329 322 324 327 332 347 351
230 231 225 222 229 240 252 255 269 296 317 304 320 332 339 350 355 4 11 20 24 20 21 23 24 24 23 25 28 30 34 36 35 35 35 36 37 37 34 31 32 35 38 39 40 37 26 20 28 99 147 144 135 105 112 134 173 202 203 189 149 136 128 111 122 124 101 250 246 233 225 225 221 214 208 206 211 228 252 258 271 279 287 304 314 314 313 315 321 321 313 315 320 325 338 353 354
230 229 228 225 228 241 258 259 259 261 281 295 317 332 342 357 3 5 8 19 25 18 18 21 23 24 24 24 26 29 34 35 35 35 34 35 36 36 34 32 32 33 35 37 35 31 25 27 40 80 166 176 171 131 138 164 179 186 187 189 167 151 136 118 132 144 159 214 244 248 231 219 211 213 210 208 219 228 250 266 280 292 298 299 312 315 303 300 312 308 307 315 320 323 339 355 357
228 229 230 224 222 231 250 257 260 268 281 289 314 335 343 356 3 2 6 18 22 15 15 19 21 23 24 24 26 28 32 35 36 35 35 35 35 35 33 32 32 33 34 34 33 30 28 30 39 45 87 177 183 155 154 168 177 185 182 179 177 170 153 144 159 159 167 192 213 234 228 215 209 229 227 221 233 234 255 275 288 307 307 297 311 312 297 301 311 310 310 316 318 320 336 352 356
228 228 231 228 224 229 242 251 257 266 273 282 313 334 339 346 353 355 0 14 17 11 14 18 19 23 24 24 26 28 31 35 36 35 35 35 35 35 33 32 32 33 33 34 35 33 32 32 36 41 55 107 160 162 157 159 168 181 180 176 185 182 162 161 169 165 171 191 208 217 213 206 206 236 235 229 242 248 262 278 289 307 306 304 311 306 302 307 310 309 312 315 316 320 332 347 352
228 228 230 231 233 239 242 245 252 259 265 277 308 330 337 341 347 357 356 10 14 8 11 15 18 22 24 25 27 28 30 34 36 35 35 36 36 35 34 33 32 32 33 35 36 35 34 33 34 40 52 87 134 159 160 162 165 164 168 177 185 182 169 167 164 168 178 189 201 207 210 206 200 217 229 237 252 258 262 273 280 280 289 304 311 306 301 301 301 302 309 315 314 318 328 342 347
227 227 229 231 236 243 238 237 245 246 254 274 303 323 338 339 342 6 1 6 9 4 7 10 17 21 23 26 28 28 30 33 36 36 36 37 37 37 35 34 33 33 33 35 37 36 36 35 36 38 45 70 110 149 164 169 163 161 171 180 182 177 175 176 167 171 186 198 212 215 218 218 208 212 223 246 266 273 273 279 280 274 277 291 304 307 302 298 299 302 307 310 313 320 329 340 343
226 226 227 228 232 237 230 229 239 238 244 267 292 306 325 333 329 356 2 1 360 359 4 7 17 21 22 26 28 29 30 32 35 37 37 38 38 38 36 35 34 34 34 35 37 38 37 37 38 38 41 55 82 126 159 170 165 167 176 181 181 176 184 188 173 174 193 211 224 221 221 228 222 220 230 257 278 290 286 282 284 280 273 273 291 307 309 306 306 306 304 305 316 324 330 338 341
225 225 225 224 226 230 225 225 236 238 242 254 271 283 304 321 314 331 352 352 349 353 3 7 17 20 21 25 28 29 30 31 34 36 37 38 39 39 38 36 34 35 36 37 39 39 40 40 41 40 41 48 65 94 133 159 167 170 171 179 179 172 186 195 180 179 196 213 224 223 224 230 225 229 238 254 280 299 295 287 289 288 278 272 288 307 309 307 306 305 304 308 319 326 332 337 339
224 223 224 221 222 226 223 220 228 234 241 248 253 263 285 300 295 313 332 343 344 349 2 10 17 19 20 24 28 30 31 32 32 36 38 38 40 40 39 37 36 36 37 38 40 42 43 44 44 44 43 48 62 78 107 128 155 169 173 181 180 176 184 194 191 188 199 215 229 234 237 237 231 234 240 251 279 293 289 287 289 291 288 284 295 305 305 307 305 298 300 312 320 326 333 335 334
224 222 223 221 220 224 224 222 227 231 238 247 248 255 274 278 275 299 328 344 344 343 1 12 16 18 19 23 27 29 31 33 33 34 38 39 40 42 41 38 37 37 38 39 42 44 47 48 48 48 47 50 62 75 96 109 132 166 179 187 187 186 186 190 195 197 204 216 232 243 245 246 242 240 243 255 279 285 280 281 286 296 303 296 296 300 301 304 301 296 301 312 319 325 330 331 331
225 222 222 221 220 223 225 227 235 234 235 244 249 255 269 263 263 297 337 353 339 333 2 14 15 16 17 23 27 29 31 34 34 34 37 40 41 43 43 40 39 38 38 40 43 46 48 51 52 52 51 52 60 70 82 97 116 148 176 189 192 194 194 196 200 203 208 216 235 247 248 252 251 246 246 258 275 280 279 281 291 310 318 302 294 297 297 295 299 305 308 313 318 324 329 331 330
225 222 222 221 220 222 225 227 232 233 233 240 246 251 257 257 267 300 339 356 327 322 1 14 13 11 13 21 26 29 31 34 36 34 36 41 42 43 44 42 40 39 39 40 42 45 47 50 52 53 54 55 59 65 74 84 99 120 148 176 190 197 202 205 206 208 215 224 240 250 253 256 253 246 241 253 274 281 289 293 294 308 304 289 287 292 294 297 305 312 311 315 321 328 336 337 334
225 223 222 221 220 221 224 225 225 230 233 235 242 246 247 248 263 289 312 331 306 306 356 10 9 6 8 18 26 29 30 33 36 35 35 39 43 44 45 44 42 40 39 40 42 43 45 48 51 54 56 58 61 64 70 76 84 97 116 140 161 170 181 194 202 209 217 226 236 243 250 249 243 237 232 250 275 286 296 292 285 289 282 276 277 286 301 307 312 316 318 325 333 344 352 350 347
224 223 222 220 219 220 222 223 222 227 233 234 236 237 234 232 247 269 273 275 272 281 348 3 3 3 3 13 26 30 30 31 35 36 35 37 42 45 45 45 44 42 40 40 41 42 43 46 50 55 57 60 63 65 69 74 78 85 97 110 124 134 146 165 184 197 206 215 222 228 235 234 230 230 235 251 272 285 286 276 276 276 263 267 281 297 307 311 318 325 332 345 0 9 10 2 355
225 223 222 219 219 218 220 220 220 228 235 237 234 232 227 225 237 246 235 232 234 247 329 352 356 1 1 10 25 31 31 31 34 37 36 36 41 45 46 46 45 43 41 41 41 42 43 45 50 54 58 61 64 67 70 74 77 80 85 93 103 116 129 145 163 180 192 201 205 209 218 225 227 233 243 255 265 275 281 275 270 258 264 287 298 305 309 315 329 340 352 10 20 19 12 3 359
226 224 222 220 218 217 218 217 217 226 235 235 232 234 231 226 229 219 209 221 216 225 296 339 348 358 1 9 24 31 33 33 33 36 37 36 39 45 48 47 46 45 43 41 41 42 43 46 49 54 59 62 65 68 71 74 77 78 80 83 89 98 109 123 140 156 169 183 197 217 229 227 228 237 250 256 243 245 250 253 262 272 288 300 304 309 318 337 354 3 13 19 19 16 13 12 11
226 224 222 220 218 216 217 215 214 220 229 232 226 225 223 219 220 205 202 216 216 223 263 311 338 353 1 10 23 30 34 35 33 35 37 37 38 43 47 48 47 46 45 43 42 43 44 47 50 54 59 63 66 69 71 75 77 77 77 78 80 84 88 94 99 106 116 129 152 172 149 157 198 200 171 200 228 236 249 268 284 299 308 311 317 332 355 16 25 20 18 18 20 23 25 24 20
226 224 222 220 218 216 215 214 213 215 220 224 218 213 211 212 214 205 202 212 217 225 247 273 318 341 355 10 22 29 35 38 35 34 36 38 38 41 44 47 47 46 46 45 43 44 45 48 51 54 58 62 65 69 72 75 77 77 76 76 77 79 80 82 85 88 90 91 89 85 81 81 90 115 151 211 241 269 323 341 352 356 354 358 6 22 38 41 33 23 26 29 31 34 33 29 26
224 224 222 220 218 216 215 213 212 213 213 212 210 207 205 208 213 212 208 212 217 223 239 254 288 320 342 8 21 30 36 40 38 34 36 38 40 42 43 46 47 46 48 47 46 46 47 49 52 55 57 61 64 67 70 73 76 76 76 76 77 77 78 79 81 82 83 84 83 83 83 82 83 84 81 75 69 62 58 54 50 42 34 30 33 40 44 42 37 38 40 36 35 37 39 41 41
224 223 221 220 218 216 214 213 211 213 212 207 205 204 204 206 211 217 214 214 218 221 233 247 269 298 314 357 19 33 37 42 43 37 36 39 43 45 44 46 48 48 49 50 49 48 48 50 53 56 58 61 63 66 69 72 74 76 76 76 76 77 78 78 78 78 78 79 79 81 81 80 78 75 72 68 63 58 55 51 48 45 42 43 44 44 45 43 44 44 42 41 46 51 55 58 54
225 223 221 219 218 216 214 212 211 212 211 208 206 205 207 209 212 217 217 216 219 220 230 243 253 267 270 319 15 36 37 41 46 42 38 39 46 49 48 48 50 49 50 52 52 51 50 51 53 56 58 61 63 66 69 71 74 75 76 76 76 76 77 77 77 77 77 77 76 76 75 73 71 69 67 63 59 57 54 51 48 48 49 52 53 52 49 48 49 49 52 57 62 65 65 63 59
226 224 221 218 217 216 215 213 212 212 212 212 211 207 208 211 213 214 215 218 220 221 232 246 251 244 243 272 0 36 43 42 47 49 43 41 48 53 52 51 51 50 51 53 54 54 53 53 54 56 58 61 62 65 68 70 72 74 75 75 75 75 75 74 73 73 73 72 71 70 68 67 65 63 61 59 59 58 58 56 54 56 60 64 65 64 59 57 57 59 65 71 72 70 67 65 63
226 225 222 219 216 215 215 213 212 213 213 214 213 210 207 210 213 213 214 218 220 223 236 254 262 251 240 251 321 31 48 46 47 55 52 46 50 56 55 53 52 51 50 53 54 55 55 54 54 56 59 60 62 64 66 68 70 71 72 73 74 73 72 71 69 68 67 66 65 64 63 61 59 58 56 56 57 58 59 59 58 62 66 69 71 71 68 67 67 70 74 75 74 74 72 70 66
226 225 223 220 216 215 215 214 212 213 214 215 215 214 212 210 211 212 213 217 221 223 233 248 255 248 246 250 267 8 44 51 50 60 63 55 52 56 56 54 53 50 49 51 53 55 56 56 55 57 60 61 63 64 65 67 68 69 70 71 71 71 70 69 67 65 63 62 60 59 58 57 55 54 53 54 55 57 59 60 61 65 68 71 73 74 74 73 75 78 79 78 76 77 79 77 72
225 224 223 221 218 215 214 214 213 213 212 214 217 218 218 215 212 212 213 217 220 220 225 236 239 238 244 246 243 315 10 45 56 69 74 67 59 57 56 54 53 49 47 48 51 54 55 57 57 58 60 62 63 64 65 66 67 68 69 69 70 70 69 68 67 65 62 60 58 56 55 54 53 53 52 53 55 57 59 61 63 66 69 71 74 76 77 77 78 81 82 81 80 80 83 83 78
225 224 223 222 219 216 214 213 213 213 211 211 215 217 219 217 212 213 214 217 220 216 220 231 233 234 241 240 237 263 303 348 70 85 89 83 70 61 58 55 52 48 46 46 48 52 55 57 58 59 60 62 64 65 66 66 67 68 68 68 69 69 68 67 66 65 63 61 59 57 55 54 54 53 53 54 56 58 61 64 65 65 68 70 74 77 81 83 83 85 86 87 87 86 86 84 79
225 224 223 222 220 217 215 213 213 213 211 210 212 213 215 214 211 213 216 218 220 216 217 224 227 231 237 237 238 250 267 265 143 109 109 102 89 73 63 57 52 47 45 45 46 48 52 56 58 59 61 61 63 65 66 66 67 68 68 68 68 68 68 67 66 65 64 61 59 58 57 56 55 54 54 55 57 60 63 66 66 65 67 71 75 79 84 87 88 89 91 93 92 89 86 82 79
225 224 223 222 221 217 215 214 213 212 210 210 212 213 212 211 210 213 216 218 220 218 215 218 222 227 230 232 236 241 247 247 223 155 139 125 113 97 74 63 56 48 44 45 44 43 48 54 58 60 61 61 63 65 66 66 67 67 68 68 68 67 67 66 66 65 63 61 59 58 57 56 56 55 56 58 59 62 66 68 68 68 69 73 78 82 86 89 90 90 92 94 93 91 87 83 78
226 224 223 222 220 218 216 215 213 212 211 209 211 212 211 210 210 214 216 216 218 216 211 212 218 222 222 223 230 233 233 235 225 193 172 155 138 128 102 75 63 53 45 44 44 41 43 49 55 60 62 62 63 65 66 66 66 66 67 67 67 66 66 65 65 64 63 61 58 57 57 56 55 56 57 59 61 64 68 71 71 70 73 77 81 84 86 89 90 91 91 92 93 91 88 82 76
227 224 223 222 220 219 217 216 214 212 211 210 209 211 211 211 211 212 214 213 213 214 211 212 217 220 217 217 224 227 226 229 224 206 192 182 165 151 136 103 73 57 48 44 44 42 43 46 51 58 62 62 63 65 66 67 67 66 66 66 66 66 65 65 63 63 62 60 58 57 56 56 55 55 57 59 62 65 69 73 73 72 73 78 83 85 87 89 91 91 91 91 91 89 86 81 76
228 225 224 222 220 218 217 216 215 212 211 211 212 212 211 213 213 211 209 208 209 213 215 214 215 218 216 214 222 223 219 224 226 212 198 194 188 173 162 148 102 58 47 45 46 46 46 48 50 56 61 62 63 65 66 67 67 67 66 66 65 65 65 64 63 62 61 60 58 57 57 56 55 55 56 58 61 64 68 72 74 73 74 77 82 86 88 89 90 91 92 92 91 88 86 82 79
227 225 224 222 219 218 216 216 216 213 210 209 212 213 212 213 214 211 209 207 209 214 217 217 214 215 215 215 222 224 215 216 224 219 204 200 199 189 180 177 172 65 37 44 48 48 50 53 52 54 60 62 63 65 66 67 67 66 66 65 65 65 64 64 64 63 62 61 60 60 59 58 57 55 55 57 60 63 67 70 73 74 75 77 81 85 87 89 90 92 93 93 92 89 86 84 81
225 224 224 222 220 218 216 216 216 215 210 207 210 211 210 211 212 211 211 208 208 213 216 217 213 213 215 215 221 225 216 211 218 222 214 205 202 199 196 197 199 223 319 30 45 49 52 58 57 55 58 62 63 65 66 67 67 67 66 66 65 65 64 64 64 64 63 62 62 62 62 61 59 57 56 57 59 62 65 68 71 73 75 78 80 83 86 89 92 93 94 94 92 88 86 86 84
224 223 223 222 220 218 216 215 216 216 212 208 208 210 209 210 211 211 210 206 206 211 215 216 214 213 215 215 217 222 219 213 214 220 221 212 205 204 208 211 213 222 247 308 41 49 53 61 63 59 59 61 64 66 67 68 68 68 67 66 66 65 64 64 64 64 63 63 62 63 63 63 62 60 58 58 59 62 64 67 70 72 74 76 79 82 85 89 92 94 95 94 91 87 85 86 87
224 223 222 221 219 218 216 214 215 216 215 211 208 209 210 210 211 211 209 207 206 209 212 214 215 215 216 216 216 219 219 216 215 218 222 219 209 206 212 219 221 223 231 242 31 58 60 66 69 66 62 61 62 65 67 69 69 69 68 67 66 66 65 64 64 64 63 63 62 63 64 65 64 63 61 60 60 62 63 65 68 71 73 75 77 80 84 88 92 95 95 93 89 85 85 88 90
224 224 222 220 218 217 216 215 215 215 216 214 209 208 209 209 211 211 209 208 208 207 209 212 216 217 217 217 216 216 218 218 218 218 221 223 215 208 211 219 225 224 224 223 214 125 81 75 76 73 68 64 61 62 65 69 70 69 68 67 67 66 64 64 64 64 64 63 63 63 63 65 65 65 64 62 61 62 63 65 66 69 72 74 77 80 83 87 90 92 92 91 88 85 88 91 91
223 223 222 220 217 215 214 214 215 215 215 214 210 208 209 210 211 211 211 211 211 210 209 211 215 217 216 217 215 214 215 218 220 220 219 222 219 211 210 217 224 226 222 216 209 188 135 92 85 81 76 70 65 62 60 64 68 69 69 67 66 65 64 64 63 64 65 65 64 63 63 63 64 65 66 65 64 63 63 65 65 67 71 74 77 79 82 84 86 87 87 87 87 88 91 94 92
220 222 222 219 216 213 213 214 214 215 214 212 211 209 209 210 211 212 213 213 214 213 211 210 214 216 216 217 217 215 216 218 221 221 218 220 221 214 211 215 221 227 226 217 210 201 189 141 99 91 85 77 70 65 60 58 60 65 69 68 65 64 63 62 62 62 63 65 65 64 63 63 63 64 65 66 66 65 64 65 66 66 69 73 77 80 81 83 84 84 84 85 87 90 91 92 91
217 220 220 219 216 213 213 214 214 215 214 212 211 210 210 210 212 213 213 212 212 212 212 211 213 214 215 218 219 217 217 218 220 220 216 216 219 215 212 212 217 225 228 223 215 208 204 195 144 106 96 87 74 67 61 56 55 57 61 64 64 62 62 61 61 61 61 63 65 66 65 64 63 63 63 64 65 66 66 66 67 68 68 71 76 80 82 83 84 84 85 86 87 88 89 89 88
214 216 218 217 215 213 212 213 214 214 213 213 212 211 211 211 212 213 213 211 209 210 211 212 213 214 216 219 219 217 216 216 219 218 214 214 216 215 213 212 214 221 228 228 221 214 210 206 193 146 110 99 84 71 62 56 54 54 54 55 57 58 60 60 60 59 58 60 62 65 66 67 66 64 63 62 63 65 66 66 67 69 70 72 76 80 83 84 85 85 85 86 86 86 87 86 85
213 214 216 216 214 213 212 212 213 213 213 213 212 212 213 212 212 214 214 211 208 207 209 212 213 212 214 218 216 214 213 214 216 215 212 212 214 215 215 214 214 217 225 229 227 222 216 209 204 198 158 117 99 82 68 54 50 53 54 50 49 51 53 56 57 58 57 57 59 62 66 67 68 67 65 63 62 63 65 66 67 69 71 74 77 80 82 83 84 85 86 85 85 85 85 86 85
211 211 213 215 214 213 212 212 212 212 211 211 212 212 212 212 213 214 214 211 208 206 205 208 210 207 209 214 213 211 211 213 215 215 213 212 214 216 217 217 216 216 221 227 229 227 222 214 208 208 212 195 135 103 80 59 44 42 48 51 49 46 45 46 49 53 55 55 55 57 62 66 69 69 68 66 64 63 63 65 66 68 70 73 77 80 82 83 85 86 86 84 82 81 82 84 85
209 209 211 213 213 212 212 212 212 212 211 211 211 211 211 212 212 213 213 211 208 205 204 205 206 205 206 211 211 210 209 212 215 216 215 214 215 216 217 218 218 217 219 224 228 230 228 221 214 212 219 226 219 183 117 69 40 26 27 37 45 46 42 37 38 43 48 52 52 52 56 62 68 70 71 70 68 65 63 63 65 67 69 72 74 77 80 83 86 88 87 83 77 73 73 78 83
208 208 209 210 210 210 211 211 210 210 211 211 210 210 210 210 211 212 212 211 209 207 205 205 206 206 206 209 211 210 208 210 214 216 216 216 216 216 217 218 220 220 220 221 225 229 231 228 223 219 221 226 232 232 230 254 331 358 358 2 14 28 37 32 28 29 34 42 48 50 50 55 63 68 71 72 72 69 66 63 63 63 66 69 71 74 76 79 82 85 85 78 68 61 63 71 80
207 206 208 209 209 208 208 209 209 209 210 210 210 209 209 209 210 211 211 210 209 207 206 206 207 207 208 209 211 211 208 209 213 215 216 216 216 216 217 219 222 224 223 222 223 226 229 230 228 225 224 227 233 234 235 247 266 286 311 324 332 343 357 11 15 15 17 23 30 39 46 50 55 62 69 72 74 73 71 68 65 62 60 62 66 69 71 73 74 75 73 68 61 57 59 66 78
206 205 206 208 208 208 207 207 208 208 209 210 210 210 209 209 209 210 210 209 208 207 206 207 208 209 210 210 211 210 209 209 211 214 215 216 215 214 215 219 224 226 226 225 223 222 225 228 229 228 228 230 235 237 236 241 251 263 276 286 295 307 314 321 336 351 358 3 5 11 24 38 47 55 63 70 75 77 76 74 73 69 63 59 59 61 64 66 68 68 66 65 63 62 64 69 78
205 205 206 207 208 208 207 206 207 208 208 209 210 210 208 208 209 209 209 208 208 207 206 207 208 210 211 211 211 211 209 209 211 212 214 214 212 211 213 217 223 227 228 228 226 224 224 227 230 234 234 236 240 242 244 247 249 256 266 271 273 279 287 296 303 311 325 340 344 345 348 356 16 42 52 63 73 78 79 79 78 79 75 68 61 57 56 58 59 60 60 61 61 63 65 70 78